This is the latest recevied weather packets stored in our database for station/object OE6ACM-14. If no packets are shown the sender has not sent any weather packets the latest 10 day(s).
| Time | Temp. | Humidity | Pressure | Rain* | Wind** | Luminosity | Snow |
|---|---|---|---|---|---|---|---|
| 1777883044 | 33.33° C | 20% | 926.9 hPa | - | - | - | - |
| 1777882744 | 32.78° C | 21% | 926.9 hPa | - | - | - | - |
| 1777882444 | 32.78° C | 21% | 927 hPa | - | - | - | - |
| 1777882144 | 32.78° C | 21% | 927 hPa | - | - | - | - |
| 1777881844 | 35° C | 18% | 927 hPa | - | - | - | - |
| 1777881544 | 34.44° C | 19% | 927 hPa | - | - | - | - |
| 1777881244 | 31.11° C | 24% | 927 hPa | - | - | - | - |
| 1777880944 | 27.78° C | 26% | 927 hPa | - | - | - | - |
| 1777880644 | 28.89° C | 24% | 927.1 hPa | - | - | - | - |
| 1777880344 | 30.56° C | 24% | 927.1 hPa | - | - | - | - |
| 1777880044 | 32.22° C | 22% | 927 hPa | - | - | - | - |
| 1777879744 | 30.56° C | 23% | 927.1 hPa | - | - | - | - |
| 1777879444 | 32.22° C | 22% | 927.1 hPa | - | - | - | - |
| 1777879144 | 33.33° C | 22% | 927.1 hPa | - | - | - | - |
| 1777878844 | 31.11° C | 24% | 927.1 hPa | - | - | - | - |
| 1777878544 | 32.22° C | 22% | 927.1 hPa | - | - | - | - |
| 1777878244 | 33.89° C | 23% | 927.1 hPa | - | - | - | - |
| 1777877944 | 32.78° C | 25% | 927.1 hPa | - | - | - | - |
| 1777877644 | 28.89° C | 29% | 927.2 hPa | - | - | - | - |
| 1777877344 | 27.78° C | 29% | 927.2 hPa | - | - | - | - |
| 1777877044 | 26.67° C | 31% | 927.3 hPa | - | - | - | - |
| 1777876744 | 21.67° C | 39% | 927.4 hPa | - | - | - | - |
| 1777876444 | 18.33° C | 43% | 927.6 hPa | - | - | - | - |
| 1777876144 | 18.89° C | 41% | 927.5 hPa | - | - | - | - |
| 1777875844 | 20° C | 40% | 927.4 hPa | - | - | - | - |
* Rain since midnight (hover to see other rain measurements)
** Current wind speed in m/s (hover to see current wind gust speed)